ROCKWY Weather Reports


time (UTC)temp
F
wind
direction
speed
knots
gust
knots
rain 1hr
in
rain 24hr
in
rain mn
in
humidity
%
barometer
mb
20190123015908 50 0 0.0 0.0 0.00 0.03 0.00 51 1025.9
20190123014409 50 0 0.0 0.0 0.00 0.03 0.00 50 1025.7
20190123013408 50 0 0.0 0.0 0.00 0.03 0.00 49 1025.9
20190123012408 49 0 0.0 0.0 0.00 0.03 0.00 55 1026.2
20190123011908 49 0 0.0 0.0 0.00 0.03 0.00 55 1026.3
20190123011409 49 0 0.0 0.0 0.00 0.03 0.00 55 1026.3
20190123005909 49 0 0.0 0.0 0.00 0.03 0.00 55 1026.4
20190123005408 49 0 0.0 0.0 0.00 0.03 0.00 55 1026.2
20190123003408 48 0 0.0 0.0 0.01 0.04 0.03 55 1026.5
20190123002408 48 0 0.0 0.0 0.01 0.04 0.03 54 1026.3
20190123001409 48 0 0.0 0.0 0.01 0.04 0.03 54 1026.5
20190123000909 48 0 0.0 0.0 0.01 0.04 0.03 54 1026.4
20190123000411 48 0 0.0 0.0 0.01 0.04 0.03 55 1026.7
20190122235908 48 0 0.0 0.0 0.01 0.04 0.03 54 1026.7
20190122234908 48 0 0.0 0.0 0.01 0.04 0.03 54 1026.6
20190122234408 48 0 0.0 0.0 0.01 0.03 0.03 53 1026.7
20190122233908 48 0 0.0 0.0 0.01 0.03 0.03 53 1026.7
20190122233408 48 0 0.0 0.0 0.00 0.03 0.02 53 1026.6
20190122232908 48 0 0.0 0.0 0.00 0.03 0.02 52 1026.7
20190122232408 48 0 0.0 0.0 0.00 0.03 0.02 52 1026.8
20190122230908 48 0 0.0 0.0 0.00 0.03 0.02 52 1027.1
20190122225908 48 0 0.0 0.0 0.00 0.03 0.02 50 1027.2
20190122224908 48 0 0.0 0.0 0.00 0.03 0.02 50 1027.1
20190122223408 47 0 0.0 0.0 0.00 0.03 0.02 48 1027.1
20190122222908 47 0 0.0 0.0 0.00 0.03 0.02 48 1027.1
20190122221908 47 0 0.0 0.0 0.00 0.03 0.02 47 1027.2
20190122221408 47 0 0.0 0.0 0.00 0.03 0.02 46 1027.3
20190122220409 47 0 0.0 0.0 0.00 0.03 0.02 45 1027.2
20190122215908 47 0 0.0 0.0 0.00 0.03 0.02 44 1027.4
20190122214908 46 0 0.0 0.0 0.00 0.03 0.02 43 1027.5
20190122213408 46 0 0.0 0.0 0.00 0.03 0.02 42 1027.9
20190122211908 46 0 0.0 0.0 0.00 0.03 0.02 42 1027.8
20190122211408 46 0 0.0 0.0 0.00 0.03 0.02 42 1027.9
20190122210408 46 0 0.0 0.0 0.00 0.03 0.02 41 1028.0
20190122205908 46 0 0.0 0.0 0.00 0.03 0.02 41 1028.1
20190122205408 46 0 0.0 0.0 0.00 0.03 0.02 39 1028.1
20190122204408 46 0 0.0 0.0 0.00 0.03 0.02 38 1028.4
20190122203908 46 0 0.0 0.0 0.00 0.03 0.02 38 1028.4
20190122203408 46 0 0.0 0.0 0.00 0.03 0.02 38 1028.4
20190122202408 46 0 0.0 0.0 0.00 0.03 0.02 38 1028.5
20190122201908 45 0 0.0 0.0 0.00 0.03 0.02 38 1028.6
20190122201408 45 0 0.0 0.0 0.00 0.03 0.02 38 1028.8
20190122200408 45 0 0.0 0.0 0.00 0.03 0.02 36 1028.8
20190122195908 45 0 0.0 0.0 0.00 0.03 0.02 37 1028.9
20190122195410 45 0 0.0 0.0 0.00 0.03 0.02 36 1029.0
20190122194908 45 0 0.0 0.0 0.00 0.03 0.02 36 1029.0
20190122194408 45 0 0.0 0.0 0.00 0.03 0.02 35 1029.0
20190122192408 45 0 0.0 0.0 0.00 0.03 0.02 36 1029.7
20190122191908 45 0 0.0 0.0 0.00 0.03 0.02 37 1029.8
20190122185908 45 0 0.0 8.7 0.00 0.03 0.02 36 1030.0
20190122185408 45 179 0.0 8.7 0.00 0.03 0.02 36 1030.0
20190122184908 45 0 0.0 0.0 0.00 0.03 0.02 36 1030.0
20190122184408 45 0 0.0 0.0 0.00 0.04 0.02 36 1030.0
20190122183909 45 0 0.0 0.0 0.00 0.04 0.02 36 1030.1
20190122183408 45 0 0.0 0.0 0.00 0.04 0.02 36 1030.1
20190122182910 45 0 0.0 0.0 0.00 0.04 0.02 35 1030.0
20190122182408 45 0 0.0 0.0 0.00 0.04 0.02 35 1030.0
20190122181908 45 0 0.0 5.2 0.00 0.04 0.02 35 1030.0
20190122181408 45 0 0.0 5.2 0.00 0.04 0.02 34 1029.9
20190122180408 45 0 0.0 0.0 0.00 0.04 0.02 34 1029.9
20190122175408 45 0 0.0 4.3 0.00 0.04 0.02 34 1030.0
20190122173908 44 0 0.0 0.0 0.00 0.04 0.02 34 1030.0
20190122172908 44 0 0.0 0.0 0.01 0.04 0.02 34 1030.0
20190122172408 44 0 0.0 4.3 0.01 0.04 0.02 34 1030.2
20190122171908 44 200 0.0 4.3 0.01 0.04 0.02 33 1030.1
20190122170408 44 0 0.0 6.1 0.01 0.04 0.02 33 1030.3
20190122165908 44 229 0.0 6.1 0.01 0.04 0.02 33 1030.3
20190122165408 44 0 0.0 7.8 0.01 0.04 0.02 33 1030.2
20190122164908 44 0 0.0 7.8 0.01 0.04 0.02 30 1030.3
20190122164408 44 236 0.0 7.8 0.01 0.03 0.02 30 1030.4
20190122163908 44 0 0.0 6.1 0.01 0.03 0.02 30 1030.4
20190122163408 44 168 0.0 6.1 0.00 0.03 0.02 29 1030.2
20190122162409 44 0 0.0 0.0 0.00 0.03 0.01 29 1030.3
20190122161408 44 0 0.0 0.0 0.00 0.03 0.01 27 1030.2
20190122160408 44 0 0.0 7.0 0.00 0.03 0.01 28 1030.3
20190122155908 44 0 0.0 7.0 0.00 0.03 0.01 28 1030.1
20190122154908 43 123 0.0 5.2 0.00 0.03 0.01 27 1030.6
20190122153408 44 0 0.0 0.0 0.00 0.03 0.01 27 1030.3
20190122151908 44 123 0.0 5.2 0.00 0.03 0.01 26 1030.4
20190122150408 44 210 0.0 6.1 0.00 0.03 0.01 26 1030.5
20190122145908 44 210 0.0 3.5 0.00 0.03 0.01 25 1030.3
20190122145408 44 0 0.0 8.7 0.00 0.03 0.01 25 1030.5
20190122144908 44 0 0.0 8.7 0.00 0.03 0.01 24 1030.6
20190122144408 44 189 0.0 8.7 0.00 0.03 0.01 25 1030.5
20190122143908 44 189 0.0 7.0 0.00 0.03 0.01 24 1030.3
20190122143408 44 0 0.0 0.0 0.00 0.03 0.01 24 1030.3
20190122142908 44 0 0.0 0.0 0.00 0.03 0.01 24 1030.3
20190122142408 45 0 0.0 0.0 0.00 0.03 0.01 24 1030.4
20190122141908 45 0 0.0 0.0 0.00 0.03 0.01 23 1030.4
20190122141408 45 0 0.0 0.0 0.00 0.03 0.01 22 1030.4
20190122140909 45 0 0.0 0.0 0.00 0.03 0.01 22 1030.5
20190122140407 45 0 0.0 0.0 0.00 0.03 0.01 22 1030.6
20190122135908 45 0 0.0 0.0 0.00 0.03 0.01 21 1030.5
20190122135408 45 0 0.0 0.0 0.00 0.03 0.01 21 1030.5
20190122134408 45 0 0.0 0.0 0.00 0.03 0.01 20 1030.5
20190122133407 45 0 0.0 0.0 0.00 0.03 0.01 19 1030.8
20190122132907 45 0 0.0 0.0 0.00 0.03 0.01 18 1030.8
20190122132407 45 0 0.0 0.0 0.00 0.03 0.01 18 1030.8
20190122131907 45 0 0.0 0.0 0.00 0.03 0.01 18 1030.9
20190122131407 45 0 0.0 0.0 0.00 0.03 0.01 17 1030.8
20190122130907 45 0 0.0 0.0 0.00 0.03 0.01 17 1030.8
20190122130407 46 0 0.0 0.0 0.00 0.03 0.01 17 1030.9
20190122125908 46 0 0.0 0.0 0.00 0.03 0.01 16 1030.9
20190122125407 46 0 0.0 0.0 0.00 0.03 0.01 16 1030.9
20190122124907 46 0 0.0 0.0 0.00 0.03 0.01 15 1031.1
20190122124407 46 0 0.0 0.0 0.00 0.03 0.01 15 1031.0
20190122123908 46 0 0.0 0.0 0.00 0.03 0.01 15 1031.1
20190122123407 46 0 0.0 0.0 0.00 0.03 0.01 15 1031.1
20190122122907 46 0 0.0 0.0 0.00 0.03 0.01 16 1031.1
20190122121907 45 0 0.0 0.0 0.00 0.03 0.01 16 1031.1
20190122120407 45 0 0.0 0.0 0.00 0.03 0.01 16 1031.3
20190122115407 45 0 0.0 0.0 0.00 0.03 0.01 16 1031.4
20190122114907 45 0 0.0 0.0 0.00 0.03 0.01 16 1031.2
20190122114407 45 0 0.0 0.0 0.00 0.03 0.01 16 1031.1
20190122113407 45 0 0.0 0.0 0.00 0.03 0.01 16 1031.4
20190122112907 45 0 0.0 0.0 0.00 0.03 0.01 16 1031.4
20190122112407 45 0 0.0 0.0 0.00 0.03 0.01 16 1031.5
20190122111907 45 0 0.0 0.0 0.00 0.03 0.01 16 1031.4
20190122111407 45 0 0.0 0.0 0.00 0.03 0.01 16 1031.6
20190122110907 45 0 0.0 0.0 0.00 0.03 0.01 16 1031.7
20190122110407 45 0 0.0 0.0 0.00 0.03 0.01 16 1031.5
20190122105907 45 0 0.0 0.0 0.00 0.03 0.01 16 1031.4
20190122105407 45 0 0.0 0.0 0.00 0.03 0.01 16 1031.6
20190122104907 45 0 0.0 0.0 0.00 0.03 0.01 17 1031.7
20190122104407 45 0 0.0 0.0 0.00 0.04 0.01 18 1031.8
20190122102407 45 0 0.0 0.0 0.00 0.04 0.01 16 1031.3
20190122101907 45 0 0.0 0.0 0.00 0.04 0.01 16 1031.3
20190122101407 45 0 0.0 0.0 0.00 0.04 0.01 16 1031.3
20190122100907 45 0 0.0 0.0 0.00 0.04 0.01 16 1031.4
20190122100407 45 0 0.0 0.0 0.00 0.04 0.01 16 1031.5
20190122095907 45 0 0.0 0.0 0.00 0.04 0.01 16 1031.6
20190122095407 45 0 0.0 0.0 0.00 0.04 0.01 16 1031.7
20190122094407 45 0 0.0 0.0 0.00 0.04 0.01 16 1032.0
20190122093407 45 0 0.0 0.0 0.00 0.04 0.01 17 1032.1
20190122092408 45 0 0.0 0.0 0.01 0.04 0.01 17 1031.9
20190122091907 45 0 0.0 0.0 0.01 0.04 0.01 17 1031.9
20190122091407 45 0 0.0 0.0 0.01 0.04 0.01 18 1031.8
20190122090907 45 0 0.0 0.0 0.01 0.04 0.01 17 1031.6
20190122090407 45 0 0.0 0.0 0.01 0.04 0.01 17 1031.7
20190122085407 45 0 0.0 0.0 0.01 0.04 0.01 18 1031.6
20190122084907 45 0 0.0 0.0 0.01 0.04 0.01 17 1031.6
20190122084407 45 0 0.0 0.0 0.01 0.03 0.01 17 1031.6
20190122083407 45 0 0.0 0.0 0.01 0.03 0.01 17 1031.4
20190122082907 45 0 0.0 0.0 0.01 0.03 0.01 18 1031.4
20190122082407 45 0 0.0 0.0 0.00 0.03 0.01 18 1031.7
20190122081907 45 0 0.0 0.0 0.00 0.03 0.01 17 1031.9
20190122081407 45 0 0.0 0.0 0.00 0.03 0.00 17 1032.0
20190122080407 45 0 0.0 0.0 0.00 0.03 0.00 18 1031.7
20190122075907 45 0 0.0 0.0 0.00 0.03 0.00 18 1031.6
20190122074907 45 0 0.0 0.0 0.00 0.03 0.00 18 1031.6
20190122074407 45 0 0.0 0.0 0.00 0.03 0.00 18 1031.7
20190122073907 45 0 0.0 0.0 0.00 0.03 0.00 18 1031.7
20190122072907 44 0 0.0 0.0 0.00 0.03 0.00 19 1031.9
20190122072407 44 0 0.0 0.0 0.00 0.03 0.00 19 1032.0
20190122071907 44 0 0.0 0.0 0.00 0.03 0.00 19 1032.4
20190122070407 44 0 0.0 0.0 0.00 0.03 0.00 20 1032.3
20190122065907 44 0 0.0 0.0 0.00 0.03 0.00 20 1032.3
20190122064907 44 0 0.0 0.0 0.00 0.03 0.00 20 1032.1
20190122064407 44 0 0.0 0.0 0.00 0.03 0.00 20 1032.0
20190122063907 44 0 0.0 0.0 0.00 0.03 0.00 20 1031.9
20190122063407 44 0 0.0 0.0 0.00 0.03 0.00 20 1031.8
20190122061907 44 0 0.0 0.0 0.00 0.03 0.00 21 1031.8
20190122061407 44 0 0.0 0.0 0.00 0.03 0.00 22 1031.8
20190122060407 44 0 0.0 0.0 0.00 0.03 0.00 22 1031.9
20190122055407 44 0 0.0 0.0 0.00 0.03 0.00 22 1032.0
20190122054907 44 0 0.0 0.0 0.00 0.03 0.00 22 1031.9
20190122053407 44 0 0.0 0.0 0.00 0.03 0.00 22 1032.0
20190122052907 44 0 0.0 0.0 0.00 0.03 0.00 22 1032.0
20190122052407 44 0 0.0 0.0 0.00 0.03 0.00 22 1031.9
20190122051907 44 0 0.0 0.0 0.00 0.03 0.00 22 1031.9
20190122051407 44 0 0.0 0.0 0.00 0.03 0.00 22 1031.9
20190122045907 44 0 0.0 0.0 0.00 0.03 0.00 22 1031.6
20190122045407 44 0 0.0 0.0 0.00 0.03 0.00 22 1031.7
20190122044907 44 0 0.0 0.0 0.00 0.03 0.00 22 1031.6
20190122044407 44 0 0.0 0.0 0.00 0.04 0.00 22 1031.6
20190122042907 44 0 0.0 0.0 0.00 0.04 0.00 22 1031.5
20190122042407 44 0 0.0 0.0 0.00 0.04 0.00 22 1031.4
20190122041907 44 0 0.0 0.0 0.00 0.04 0.00 22 1031.4
20190122040407 44 0 0.0 0.0 0.00 0.04 0.00 22 1031.4
20190122035907 44 0 0.0 0.0 0.00 0.04 0.00 22 1031.5
20190122034407 44 0 0.0 0.0 0.00 0.04 0.00 22 1031.4
20190122032907 44 0 0.0 0.0 0.00 0.04 0.00 22 1031.6
20190122032407 44 0 0.0 0.0 0.00 0.04 0.00 22 1031.5
20190122031407 44 0 0.0 0.0 0.00 0.04 0.00 22 1031.4
20190122025907 44 0 0.0 0.0 0.00 0.04 0.00 22 1031.5
20190122025407 44 0 0.0 0.0 0.00 0.04 0.00 22 1031.5